Weather in Tomakivka

Ukraine / Dnipropetrovsk Region     47°48′47″N   34°44′57″E
temp.,
°C
wind,
m/s
gust,
m/s
humid.,
%
clouds,
%
prec.,
mm/h
press.,
hPa
HPBL,
m
13 april, tue
tue1300:00+8sse369476 0.0 1022156
03:00+7sse249295 0.0 102293
06:00+7se2392100 0.0 102253
09:00+10se347431 0.0 1022444
12:00+13sse336377 0.0 1021843
15:00+14s4460100 0.0 10201277
18:00+12s3472100 0.1 1020340
21:00+11sse3683100 0.1 1020277
14 april, wed
wed1400:00+9sse368951 0.0 1020176
03:00+7sse33958 0.0 101962
06:00+6se2296100 0.0 101929
09:00+10ese3478100 0.0 1018429
12:00+13se4560100 0.0 1017961
15:00+15se4545100 0.0 10161410
18:00+15sse45506 0.0 10151342
21:00+10sse4974100 0.0 1016236
15 april, thu
thu1500:00+8se41084100 0.0 1014352
03:00+8sse4792100 0.8 1014284
06:00+8se4791100 0.4 1014338
09:00+9sse5989100 0.7 1014487
12:00+9se5993100 5.8 1014493
15:00+14ssw7965100 6.4 10131333
18:00+12sw687173 0.1 10131021
21:00+8sw5108126 0.3 1014354
16 april, fri
fri1600:00+6ssw4108429 0.0 1014353
03:00+7sw61175100 0.0 1014645
06:00+6sw51282100 0.0 1015714
09:00+9ssw697214 0.0 1015949
12:00+11sw6958100 0.3 10151542
15:00+12ssw694989 0.3 10151842
18:00+11sw57527 0.1 10161353
21:00+7wsw35685 0.1 101786
17 april, sat
sat1700:00+5wsw347839 0.0 101853
03:00+5ssw34845 0.0 101859
06:00+4s34885 0.0 101965
09:00+8s567292 0.0 1020523
12:00+12sw465841 0.0 10191371
15:00+13ssw3555100 0.1 10191167
18:00+12s2261100 0.0 1020283
21:00+10se2367100 0.0 102062